| time (UTC) | temp F | wind direction | speed knots | gust knots | rain 1hr in | rain 24hr in | rain mn in | humidity % | barometer mb |
| 20260507223105 | 72 | 333 | 7.8 | 14.8 | 0.00 | 0.00 | 0.00 | 33 | 1018.1 |
| 20260507220033 | 72 | 327 | 7.0 | 14.8 | 0.00 | 0.00 | 0.00 | 34 | 1018.5 |
| 20260507214530 | 72 | 329 | 7.8 | 12.2 | 0.00 | 0.00 | 0.00 | 35 | 1018.5 |
| 20260507213029 | 72 | 328 | 6.1 | 11.3 | 0.00 | 0.00 | 0.00 | 35 | 1018.7 |
| 20260507211607 | 72 | 338 | 6.1 | 12.2 | 0.00 | 0.00 | 0.00 | 36 | 1018.9 |
| 20260507210030 | 71 | 339 | 4.3 | 9.6 | 0.00 | 0.00 | 0.00 | 37 | 1019.1 |
| 20260507203031 | 71 | 359 | 3.5 | 7.8 | 0.00 | 0.00 | 0.00 | 38 | 1019.4 |
| 20260507200031 | 69 | 18 | 3.5 | 10.4 | 0.00 | 0.00 | 0.00 | 41 | 1019.6 |
| 20260507191529 | 70 | 50 | 1.7 | 6.1 | 0.00 | 0.00 | 0.00 | 43 | 1020.0 |
| 20260507190029 | 70 | 12 | 2.6 | 7.0 | 0.00 | 0.00 | 0.00 | 45 | 1020.1 |
| 20260507184529 | 69 | 45 | 2.6 | 7.0 | 0.00 | 0.00 | 0.00 | 48 | 1020.3 |
| 20260507183040 | 65 | 39 | 1.7 | 6.1 | 0.00 | 0.00 | 0.00 | 52 | 1020.4 |
| 20260507181608 | 64 | 360 | 2.6 | 7.8 | 0.00 | 0.00 | 0.00 | 53 | 1020.6 |
| 20260507180103 | 65 | 351 | 3.5 | 8.7 | 0.00 | 0.00 | 0.00 | 55 | 1020.7 |
| 20260507174531 | 64 | 37 | 3.5 | 7.0 | 0.00 | 0.00 | 0.00 | 57 | 1020.8 |
| 20260507171534 | 62 | 8 | 4.3 | 9.6 | 0.00 | 0.00 | 0.00 | 60 | 1021.0 |
| 20260507170032 | 63 | 3 | 3.5 | 10.4 | 0.00 | 0.00 | 0.00 | 61 | 1021.0 |
| 20260507163147 | 62 | 283 | 2.6 | 7.0 | 0.00 | 0.00 | 0.00 | 62 | 1020.8 |
| 20260507161604 | 62 | 275 | 3.5 | 7.0 | 0.00 | 0.00 | 0.00 | 62 | 1021.0 |
| 20260507160033 | 62 | 281 | 3.5 | 7.0 | 0.00 | 0.00 | 0.00 | 65 | 1021.2 |
| 20260507154531 | 61 | 266 | 1.7 | 4.3 | 0.00 | 0.00 | 0.00 | 70 | 1021.4 |
| 20260507153032 | 59 | 278 | 0.9 | 4.3 | 0.00 | 0.00 | 0.00 | 75 | 1021.6 |
| 20260507151530 | 56 | 256 | 1.7 | 4.3 | 0.00 | 0.00 | 0.00 | 86 | 1021.7 |
| 20260507150043 | 50 | 271 | 0.9 | 3.5 | 0.00 | 0.00 | 0.00 | 92 | 1021.6 |
| 20260507144533 | 48 | 275 | 0.9 | 3.5 | 0.00 | 0.00 | 0.00 | 93 | 1021.6 |
| 20260507143030 | 47 | 252 | 1.7 | 3.5 | 0.00 | 0.00 | 0.00 | 92 | 1021.6 |
| 20260507141530 | 45 | 91 | 0.0 | 3.5 | 0.00 | 0.00 | 0.00 | 92 | 1021.4 |
| 20260507140031 | 44 | 105 | 0.0 | 1.7 | 0.00 | 0.00 | 0.00 | 91 | 1021.3 |
| 20260507133145 | 44 | 199 | 0.9 | 2.6 | 0.00 | 0.00 | 0.00 | 91 | 1021.2 |
| 20260507131531 | 44 | 103 | 0.0 | 2.6 | 0.00 | 0.00 | 0.00 | 90 | 1021.1 |
| 20260507130105 | 45 | 102 | 0.9 | 1.7 | 0.00 | 0.00 | 0.00 | 90 | 1021.0 |
| 20260507124605 | 45 | 56 | 0.9 | 3.5 | 0.00 | 0.00 | 0.00 | 90 | 1021.0 |
| 20260507123029 | 45 | 88 | 0.0 | 2.6 | 0.00 | 0.00 | 0.00 | 90 | 1020.8 |
| 20260507121647 | 45 | 88 | 1.7 | 4.3 | 0.00 | 0.00 | 0.00 | 89 | 1020.8 |
| 20260507114534 | 46 | 98 | 0.9 | 3.5 | 0.00 | 0.00 | 0.00 | 88 | 1020.7 |
| 20260507113146 | 46 | 92 | 1.7 | 3.5 | 0.00 | 0.00 | 0.00 | 87 | 1020.5 |
| 20260507111530 | 46 | 155 | 0.9 | 4.3 | 0.00 | 0.00 | 0.00 | 86 | 1020.4 |
| 20260507110029 | 47 | 76 | 0.9 | 3.5 | 0.00 | 0.00 | 0.00 | 85 | 1020.3 |
| 20260507103033 | 49 | 110 | 0.9 | 3.5 | 0.00 | 0.00 | 0.00 | 82 | 1020.3 |
| 20260507101530 | 51 | 109 | 1.7 | 3.5 | 0.00 | 0.00 | 0.00 | 81 | 1020.2 |
| 20260507094531 | 52 | 310 | 0.0 | 3.5 | 0.00 | 0.00 | 0.00 | 80 | 1020.4 |
| 20260507091530 | 52 | 303 | 0.0 | 4.3 | 0.00 | 0.00 | 0.00 | 81 | 1020.3 |
| 20260507090028 | 52 | 16 | 0.9 | 4.3 | 0.00 | 0.00 | 0.00 | 82 | 1020.4 |
| 20260507084530 | 52 | 28 | 1.7 | 5.2 | 0.00 | 0.00 | 0.00 | 82 | 1020.4 |
| 20260507083143 | 53 | 5 | 1.7 | 7.0 | 0.00 | 0.00 | 0.00 | 82 | 1020.5 |
| 20260507081531 | 53 | 53 | 0.9 | 4.3 | 0.00 | 0.00 | 0.00 | 82 | 1020.5 |
| 20260507080030 | 52 | 51 | 0.9 | 5.2 | 0.00 | 0.00 | 0.00 | 83 | 1020.6 |
| 20260507074528 | 52 | 69 | 0.9 | 5.2 | 0.00 | 0.00 | 0.00 | 83 | 1020.5 |
| 20260507073028 | 51 | 70 | 0.0 | 3.5 | 0.00 | 0.00 | 0.00 | 82 | 1020.4 |
| 20260507071532 | 51 | 229 | 0.0 | 3.5 | 0.00 | 0.00 | 0.00 | 81 | 1020.4 |
| 20260507064533 | 52 | 139 | 0.0 | 2.6 | 0.00 | 0.00 | 0.00 | 76 | 1020.6 |
| 20260507063030 | 53 | 166 | 0.0 | 3.5 | 0.00 | 0.00 | 0.00 | 73 | 1020.7 |
| 20260507061530 | 55 | 150 | 0.9 | 3.5 | 0.00 | 0.00 | 0.00 | 69 | 1020.8 |
| 20260507054530 | 57 | 335 | 1.7 | 7.0 | 0.00 | 0.00 | 0.00 | 61 | 1020.9 |
| 20260507053030 | 58 | 350 | 1.7 | 3.5 | 0.00 | 0.00 | 0.00 | 59 | 1021.0 |
| 20260507050031 | 60 | 271 | 1.7 | 5.2 | 0.00 | 0.00 | 0.00 | 54 | 1020.9 |
| 20260507044530 | 60 | 247 | 3.5 | 7.0 | 0.00 | 0.00 | 0.00 | 53 | 1021.0 |
| 20260507043029 | 61 | 247 | 2.6 | 4.3 | 0.00 | 0.00 | 0.00 | 52 | 1021.0 |
| 20260507040037 | 62 | 282 | 4.3 | 9.6 | 0.00 | 0.00 | 0.00 | 51 | 1020.8 |
| 20260507033108 | 64 | 285 | 4.3 | 9.6 | 0.00 | 0.00 | 0.00 | 48 | 1020.6 |
| 20260507031530 | 64 | 300 | 6.1 | 12.2 | 0.00 | 0.00 | 0.00 | 48 | 1020.5 |
| 20260507030104 | 65 | 304 | 6.1 | 16.5 | 0.00 | 0.00 | 0.00 | 49 | 1020.3 |
| 20260507024530 | 65 | 298 | 5.2 | 13.9 | 0.00 | 0.00 | 0.00 | 49 | 1020.2 |
| 20260507021528 | 66 | 296 | 5.2 | 12.2 | 0.00 | 0.00 | 0.00 | 49 | 1020.2 |
| 20260507020030 | 66 | 289 | 5.2 | 13.0 | 0.00 | 0.00 | 0.00 | 49 | 1020.1 |
| 20260507013027 | 67 | 305 | 3.5 | 8.7 | 0.00 | 0.00 | 0.00 | 49 | 1019.9 |
| 20260507011530 | 67 | 326 | 3.5 | 9.6 | 0.00 | 0.00 | 0.00 | 48 | 1019.8 |
| 20260507010027 | 68 | 326 | 5.2 | 11.3 | 0.00 | 0.00 | 0.00 | 45 | 1019.6 |
| 20260507004530 | 69 | 308 | 6.1 | 13.0 | 0.00 | 0.00 | 0.00 | 45 | 1019.5 |
| 20260507003032 | 69 | 308 | 5.2 | 12.2 | 0.00 | 0.00 | 0.00 | 45 | 1019.5 |
| 20260507001532 | 69 | 299 | 5.2 | 13.9 | 0.00 | 0.00 | 0.00 | 45 | 1019.4 |
| 20260507000028 | 71 | 328 | 7.0 | 13.9 | 0.00 | 0.00 | 0.00 | 45 | 1019.2 |
| 20260506234532 | 72 | 325 | 6.1 | 15.6 | 0.00 | 0.00 | 0.00 | 44 | 1019.2 |
| 20260506233029 | 72 | 334 | 5.2 | 8.7 | 0.00 | 0.00 | 0.00 | 43 | 1019.2 |
| 20260506231526 | 74 | 318 | 7.0 | 13.9 | 0.00 | 0.00 | 0.00 | 42 | 1019.2 |
| 20260506224528 | 74 | 299 | 6.1 | 13.9 | 0.00 | 0.00 | 0.00 | 44 | 1019.4 |